Time,TemperatureF,DewpointF,PressureIn,WindDirection,WindDirectionDegrees,WindSpeedMPH,WindSpeedGustMPH,Humidity,HourlyPrecipIn,Conditions,Clouds,dailyrainin,SoftwareType,DateUTC
2013-05-26 00:02:00,58.0,49.0,30.22,WNW,300,0.0,0.0,72,0.00,,,0.00,,2013-05-26 04:02:00,
2013-05-26 00:12:00,58.0,49.0,30.22,WNW,300,0.0,0.0,72,0.00,,,0.00,,2013-05-26 04:12:00,
2013-05-26 00:23:00,58.0,49.0,30.22,WNW,300,0.0,0.0,72,0.00,,,0.00,,2013-05-26 04:23:00,
2013-05-26 00:33:00,58.0,49.0,30.22,WNW,300,0.0,0.0,72,0.00,,,0.00,,2013-05-26 04:33:00,
2013-05-26 00:42:00,58.0,49.0,30.22,WNW,300,0.0,0.0,72,0.00,,,0.00,,2013-05-26 04:42:00,
2013-05-26 00:52:00,57.0,49.0,30.23,WNW,300,0.0,0.0,75,0.00,,,0.00,,2013-05-26 04:52:00,
2013-05-26 01:02:00,56.0,50.0,30.23,WNW,300,0.0,0.0,79,0.00,,,0.00,,2013-05-26 05:02:00,
2013-05-26 01:12:00,56.0,50.0,30.23,WNW,300,0.0,0.0,79,0.00,,,0.00,,2013-05-26 05:12:00,
2013-05-26 01:22:00,56.0,50.0,30.23,WNW,300,0.0,0.0,79,0.00,,,0.00,,2013-05-26 05:22:00,
2013-05-26 01:32:00,56.0,49.0,30.23,WNW,300,0.0,0.0,77,0.00,,,0.00,,2013-05-26 05:32:00,
2013-05-26 01:42:00,56.0,49.0,30.23,WNW,300,0.0,0.0,77,0.00,,,0.00,,2013-05-26 05:42:00,
2013-05-26 01:52:00,55.0,50.0,30.22,WNW,300,0.0,0.0,82,0.00,,,0.00,,2013-05-26 05:52:00,
2013-05-26 02:01:00,55.0,50.0,30.22,WNW,300,0.0,0.0,82,0.00,,,0.00,,2013-05-26 06:01:00,
2013-05-26 02:12:00,55.0,50.0,30.22,WNW,300,0.0,0.0,82,0.00,,,0.00,,2013-05-26 06:12:00,
2013-05-26 02:22:00,54.0,49.0,30.22,WNW,300,0.0,0.0,83,0.00,,,0.00,,2013-05-26 06:22:00,
2013-05-26 02:32:00,54.0,49.0,30.22,WNW,300,0.0,0.0,82,0.00,,,0.00,,2013-05-26 06:32:00,
2013-05-26 02:42:00,54.0,49.0,30.22,WNW,300,0.0,0.0,82,0.00,,,0.00,,2013-05-26 06:42:00,
2013-05-26 02:52:00,54.0,49.0,30.21,WNW,300,0.0,0.0,84,0.00,,,0.00,,2013-05-26 06:52:00,
2013-05-26 03:01:00,54.0,49.0,30.21,WNW,300,0.0,0.0,84,0.00,,,0.00,,2013-05-26 07:01:00,
2013-05-26 03:11:00,54.0,49.0,30.21,WNW,300,0.0,0.0,84,0.00,,,0.00,,2013-05-26 07:11:00,
2013-05-26 03:22:00,53.0,49.0,30.22,WNW,300,0.0,0.0,87,0.00,,,0.00,,2013-05-26 07:22:00,
2013-05-26 03:32:00,53.0,49.0,30.22,WNW,300,0.0,0.0,87,0.00,,,0.00,,2013-05-26 07:32:00,
2013-05-26 03:42:00,53.0,49.0,30.22,WNW,300,0.0,0.0,87,0.00,,,0.00,,2013-05-26 07:42:00,
2013-05-26 03:52:00,53.0,50.0,30.22,WNW,300,0.0,0.0,88,0.00,,,0.00,,2013-05-26 07:52:00,
2013-05-26 04:01:00,53.0,50.0,30.22,WNW,300,0.0,0.0,88,0.00,,,0.00,,2013-05-26 08:01:00,
2013-05-26 04:12:00,53.0,50.0,30.22,WNW,300,0.0,0.0,88,0.00,,,0.00,,2013-05-26 08:12:00,
2013-05-26 04:21:00,53.0,50.0,30.22,WNW,300,0.0,0.0,89,0.00,,,0.00,,2013-05-26 08:21:00,
2013-05-26 04:32:00,52.0,49.0,30.22,WNW,300,0.0,0.0,90,0.00,,,0.00,,2013-05-26 08:32:00,
2013-05-26 04:42:00,52.0,49.0,30.22,WNW,300,0.0,0.0,90,0.00,,,0.00,,2013-05-26 08:42:00,
2013-05-26 04:53:00,52.0,49.0,30.23,WNW,300,0.0,0.0,91,0.00,,,0.00,,2013-05-26 08:53:00,
2013-05-26 05:01:00,51.0,49.0,30.23,WNW,300,0.0,0.0,92,0.00,,,0.00,,2013-05-26 09:01:00,
2013-05-26 05:11:00,51.0,49.0,30.24,WNW,300,0.0,0.0,92,0.00,,,0.00,,2013-05-26 09:11:00,
2013-05-26 05:21:00,51.0,49.0,30.24,WNW,300,0.0,0.0,92,0.00,,,0.00,,2013-05-26 09:21:00,
2013-05-26 05:33:00,51.0,49.0,30.24,WNW,300,0.0,0.0,93,0.00,,,0.00,,2013-05-26 09:33:00,
2013-05-26 05:42:00,51.0,49.0,30.24,WNW,300,0.0,0.0,93,0.00,,,0.00,,2013-05-26 09:42:00,
2013-05-26 05:53:00,51.0,49.0,30.24,WNW,300,0.0,0.0,93,0.00,,,0.00,,2013-05-26 09:53:00,
2013-05-26 06:02:00,51.0,49.0,30.25,WNW,300,0.0,0.0,94,0.00,,,0.00,,2013-05-26 10:02:00,
2013-05-26 06:12:00,51.0,49.0,30.25,WNW,300,0.0,0.0,94,0.00,,,0.00,,2013-05-26 10:12:00,
2013-05-26 06:23:00,51.0,49.0,30.26,WNW,300,0.0,0.0,94,0.00,,,0.00,,2013-05-26 10:23:00,
2013-05-26 06:33:00,51.0,50.0,30.27,WNW,300,0.0,0.0,95,0.00,,,0.00,,2013-05-26 10:33:00,
2013-05-26 06:42:00,51.0,50.0,30.28,WNW,300,0.0,0.0,95,0.00,,,0.00,,2013-05-26 10:42:00,
2013-05-26 06:52:00,51.0,50.0,30.28,WNW,300,0.0,0.0,95,0.00,,,0.00,,2013-05-26 10:52:00,
2013-05-26 07:03:00,52.0,51.0,30.28,WNW,300,0.0,0.0,95,0.00,,,0.00,,2013-05-26 11:03:00,
2013-05-26 07:11:00,52.0,51.0,30.28,WNW,300,0.0,0.0,95,0.00,,,0.00,,2013-05-26 11:11:00,
2013-05-26 07:22:00,53.0,52.0,30.28,WNW,300,0.0,0.0,95,0.00,,,0.00,,2013-05-26 11:22:00,
2013-05-26 07:32:00,52.0,51.0,30.29,WNW,300,0.0,0.0,95,0.00,,,0.00,,2013-05-26 11:32:00,
2013-05-26 07:42:00,52.0,51.0,30.29,WNW,300,0.0,0.0,95,0.00,,,0.00,,2013-05-26 11:42:00,
2013-05-26 07:52:00,53.0,51.0,30.29,ENE,76,0.0,0.0,94,0.00,,,0.00,,2013-05-26 11:52:00,
2013-05-26 08:02:00,53.0,52.0,30.29,ENE,76,0.0,0.0,95,0.00,,,0.00,,2013-05-26 12:02:00,
2013-05-26 08:12:00,53.0,52.0,30.29,ENE,76,0.0,0.0,95,0.00,,,0.00,,2013-05-26 12:12:00,
2013-05-26 08:22:00,53.0,51.0,30.28,ENE,76,0.0,0.0,94,0.00,,,0.00,,2013-05-26 12:22:00,
2013-05-26 08:32:00,55.0,53.0,30.27,ENE,76,0.0,1.0,94,0.00,,,0.00,,2013-05-26 12:32:00,
2013-05-26 08:42:00,55.0,53.0,30.27,ENE,76,0.0,1.0,94,0.00,,,0.00,,2013-05-26 12:42:00,
2013-05-26 08:52:00,56.0,52.0,30.27,NE,48,0.0,1.0,88,0.00,,,0.00,,2013-05-26 12:52:00,
2013-05-26 09:02:00,57.0,53.0,30.28,NE,48,0.0,1.0,86,0.00,,,0.00,,2013-05-26 13:02:00,
2013-05-26 09:11:00,57.0,53.0,30.28,NE,48,0.0,1.0,86,0.00,,,0.00,,2013-05-26 13:11:00,
2013-05-26 09:21:00,57.0,53.0,30.29,NE,48,0.0,1.0,85,0.00,,,0.00,,2013-05-26 13:21:00,
2013-05-26 09:32:00,57.0,52.0,30.29,NE,48,0.0,0.0,84,0.00,,,0.00,,2013-05-26 13:32:00,
2013-05-26 09:42:00,59.0,53.0,30.29,NNW,329,0.0,1.0,81,0.00,,,0.00,,2013-05-26 13:42:00,
2013-05-26 09:52:00,59.0,53.0,30.29,NNW,329,0.0,1.0,81,0.00,,,0.00,,2013-05-26 13:52:00,
2013-05-26 10:02:00,60.0,54.0,30.29,NNE,28,0.0,1.0,80,0.00,,,0.00,,2013-05-26 14:02:00,
2013-05-26 10:11:00,60.0,54.0,30.29,NNE,28,0.0,1.0,80,0.00,,,0.00,,2013-05-26 14:11:00,
2013-05-26 10:21:00,61.0,52.0,30.29,SW,231,0.0,1.0,73,0.00,,,0.00,,2013-05-26 14:21:00,
2013-05-26 10:32:00,61.0,53.0,30.29,WSW,252,0.0,1.0,74,0.00,,,0.00,,2013-05-26 14:32:00,
2013-05-26 10:42:00,62.0,52.0,30.29,WSW,252,0.0,1.0,70,0.00,,,0.00,,2013-05-26 14:42:00,
2013-05-26 10:52:00,62.0,52.0,30.29,WSW,252,0.0,1.0,70,0.00,,,0.00,,2013-05-26 14:52:00,
2013-05-26 11:01:00,62.0,53.0,30.29,WNW,296,0.0,1.0,72,0.00,,,0.00,,2013-05-26 15:01:00,
2013-05-26 11:12:00,62.0,53.0,30.29,WNW,296,0.0,1.0,72,0.00,,,0.00,,2013-05-26 15:12:00,
2013-05-26 11:22:00,64.0,53.0,30.30,WNW,296,1.0,3.0,68,0.00,,,0.00,,2013-05-26 15:22:00,
2013-05-26 11:33:00,64.0,53.0,30.29,WNW,290,0.0,1.0,67,0.00,,,0.00,,2013-05-26 15:33:00,
2013-05-26 11:43:00,65.0,52.0,30.29,SW,217,1.0,3.0,63,0.00,,,0.00,,2013-05-26 15:43:00,
2013-05-26 11:53:00,65.0,52.0,30.29,SW,217,1.0,3.0,63,0.00,,,0.00,,2013-05-26 15:53:00,
2013-05-26 12:03:00,67.0,52.0,30.30,WNW,300,1.0,3.0,58,0.00,,,0.00,,2013-05-26 16:03:00,
2013-05-26 12:12:00,68.0,52.0,30.30,WNW,286,0.0,3.0,57,0.00,,,0.00,,2013-05-26 16:12:00,
2013-05-26 12:23:00,68.0,52.0,30.30,WNW,286,0.0,3.0,57,0.00,,,0.00,,2013-05-26 16:23:00,
2013-05-26 12:33:00,70.0,54.0,30.30,WNW,291,0.0,2.0,56,0.00,,,0.00,,2013-05-26 16:33:00,
2013-05-26 12:42:00,71.0,53.0,30.29,West,279,0.0,3.0,53,0.00,,,0.00,,2013-05-26 16:42:00,
2013-05-26 12:53:00,71.0,53.0,30.29,West,279,0.0,3.0,53,0.00,,,0.00,,2013-05-26 16:53:00,
2013-05-26 13:02:00,72.0,56.0,30.29,West,264,0.0,2.0,58,0.00,,,0.00,,2013-05-26 17:02:00,
2013-05-26 13:11:00,72.0,56.0,30.29,West,264,0.0,2.0,58,0.00,,,0.00,,2013-05-26 17:11:00,
2013-05-26 13:22:00,72.0,54.0,30.29,West,280,0.0,3.0,54,0.00,,,0.00,,2013-05-26 17:22:00,
2013-05-26 13:32:00,73.0,55.0,30.29,SW,236,0.0,3.0,53,0.00,,,0.00,,2013-05-26 17:32:00,
2013-05-26 13:42:00,74.0,54.0,30.28,SW,236,0.0,2.0,49,0.00,,,0.00,,2013-05-26 17:42:00,
2013-05-26 13:52:00,74.0,54.0,30.28,SW,236,0.0,2.0,49,0.00,,,0.00,,2013-05-26 17:52:00,
2013-05-26 14:01:00,74.0,54.0,30.28,NW,323,0.0,4.0,50,0.00,,,0.00,,2013-05-26 18:01:00,
2013-05-26 14:12:00,74.0,54.0,30.28,NW,323,0.0,4.0,50,0.00,,,0.00,,2013-05-26 18:12:00,
2013-05-26 14:21:00,74.0,55.0,30.27,NW,321,0.0,2.0,51,0.00,,,0.00,,2013-05-26 18:21:00,
2013-05-26 14:32:00,75.0,56.0,30.26,WSW,246,2.0,4.0,51,0.00,,,0.00,,2013-05-26 18:32:00,
2013-05-26 14:42:00,76.0,54.0,30.26,WNW,290,0.0,3.0,46,0.00,,,0.00,,2013-05-26 18:42:00,
2013-05-26 14:52:00,76.0,54.0,30.26,WNW,290,0.0,3.0,46,0.00,,,0.00,,2013-05-26 18:52:00,
2013-05-26 15:01:00,77.0,54.0,30.25,West,267,1.0,2.0,45,0.00,,,0.00,,2013-05-26 19:01:00,
2013-05-26 15:11:00,77.0,54.0,30.25,West,267,1.0,2.0,45,0.00,,,0.00,,2013-05-26 19:11:00,
2013-05-26 15:22:00,76.0,51.0,30.25,West,267,1.0,4.0,41,0.00,,,0.00,,2013-05-26 19:22:00,
2013-05-26 15:32:00,77.0,49.0,30.25,WNW,294,0.0,3.0,37,0.00,,,0.00,,2013-05-26 19:32:00,
2013-05-26 15:42:00,77.0,49.0,30.25,WNW,294,0.0,3.0,37,0.00,,,0.00,,2013-05-26 19:42:00,
2013-05-26 15:52:00,78.0,56.0,30.25,WNW,302,0.0,3.0,47,0.00,,,0.00,,2013-05-26 19:52:00,
2013-05-26 16:02:00,77.0,53.0,30.24,WNW,297,1.0,3.0,43,0.00,,,0.00,,2013-05-26 20:02:00,
2013-05-26 16:11:00,77.0,53.0,30.24,WNW,297,1.0,3.0,43,0.00,,,0.00,,2013-05-26 20:11:00,
2013-05-26 16:22:00,77.0,52.0,30.23,West,266,1.0,3.0,42,0.00,,,0.00,,2013-05-26 20:22:00,
2013-05-26 16:32:00,78.0,44.0,30.23,WSW,247,1.0,3.0,30,0.00,,,0.00,,2013-05-26 20:32:00,
2013-05-26 16:42:00,78.0,44.0,30.22,WSW,245,1.0,2.0,30,0.00,,,0.00,,2013-05-26 20:42:00,
2013-05-26 16:52:00,78.0,44.0,30.22,WSW,245,1.0,2.0,30,0.00,,,0.00,,2013-05-26 20:52:00,
2013-05-26 17:02:00,79.0,49.0,30.22,WSW,245,1.0,2.0,35,0.00,,,0.00,,2013-05-26 21:02:00,
2013-05-26 17:11:00,79.0,49.0,30.22,WSW,245,1.0,2.0,35,0.00,,,0.00,,2013-05-26 21:11:00,
2013-05-26 17:22:00,79.0,50.0,30.21,WSW,238,0.0,2.0,36,0.00,,,0.00,,2013-05-26 21:22:00,
2013-05-26 17:33:00,79.0,50.0,30.21,West,279,0.0,3.0,36,0.00,,,0.00,,2013-05-26 21:33:00,
2013-05-26 17:43:00,79.0,50.0,30.21,West,279,0.0,3.0,36,0.00,,,0.00,,2013-05-26 21:43:00,
2013-05-26 17:53:00,78.0,50.0,30.21,WNW,282,0.0,2.0,37,0.00,,,0.00,,2013-05-26 21:53:00,
2013-05-26 18:03:00,78.0,54.0,30.20,WNW,282,0.0,2.0,44,0.00,,,0.00,,2013-05-26 22:03:00,
2013-05-26 18:12:00,78.0,54.0,30.20,WNW,282,0.0,2.0,44,0.00,,,0.00,,2013-05-26 22:12:00,
2013-05-26 18:23:00,79.0,52.0,30.21,WNW,282,0.0,1.0,39,0.00,,,0.00,,2013-05-26 22:23:00,
2013-05-26 18:33:00,78.0,54.0,30.20,WNW,282,0.0,1.0,44,0.00,,,0.00,,2013-05-26 22:33:00,
2013-05-26 18:42:00,78.0,53.0,30.20,NNW,331,0.0,0.0,42,0.00,,,0.00,,2013-05-26 22:42:00,
2013-05-26 18:53:00,78.0,53.0,30.20,NNW,331,0.0,0.0,42,0.00,,,0.00,,2013-05-26 22:53:00,
2013-05-26 19:02:00,78.0,53.0,30.20,NNW,331,0.0,0.0,42,0.00,,,0.00,,2013-05-26 23:02:00,
2013-05-26 19:12:00,78.0,53.0,30.20,NNW,331,0.0,0.0,42,0.00,,,0.00,,2013-05-26 23:12:00,
2013-05-26 19:22:00,76.0,52.0,30.20,NNW,331,0.0,0.0,44,0.00,,,0.00,,2013-05-26 23:22:00,
2013-05-26 19:32:00,75.0,53.0,30.19,NNW,331,0.0,0.0,46,0.00,,,0.00,,2013-05-26 23:32:00,
2013-05-26 19:43:00,75.0,54.0,30.19,WSW,240,0.0,0.0,48,0.00,,,0.00,,2013-05-26 23:43:00,
2013-05-26 19:52:00,75.0,54.0,30.19,WSW,240,0.0,0.0,48,0.00,,,0.00,,2013-05-26 23:52:00,
2013-05-26 20:02:00,73.0,55.0,30.19,WSW,240,0.0,0.0,53,0.00,,,0.00,,2013-05-27 00:02:00,
2013-05-26 20:11:00,73.0,55.0,30.19,WSW,240,0.0,0.0,53,0.00,,,0.00,,2013-05-27 00:11:00,
2013-05-26 20:22:00,72.0,54.0,30.19,WSW,240,0.0,0.0,53,0.00,,,0.00,,2013-05-27 00:22:00,
2013-05-26 20:32:00,72.0,55.0,30.19,WSW,240,0.0,0.0,56,0.00,,,0.00,,2013-05-27 00:32:00,
2013-05-26 20:42:00,70.0,54.0,30.20,West,260,0.0,0.0,57,0.00,,,0.00,,2013-05-27 00:42:00,
2013-05-26 20:52:00,70.0,54.0,30.20,West,260,0.0,0.0,57,0.00,,,0.00,,2013-05-27 00:52:00,
2013-05-26 21:01:00,70.0,55.0,30.20,West,260,0.0,0.0,58,0.00,,,0.00,,2013-05-27 01:01:00,
2013-05-26 21:11:00,70.0,55.0,30.20,West,260,0.0,0.0,58,0.00,,,0.00,,2013-05-27 01:11:00,
2013-05-26 21:22:00,69.0,54.0,30.19,West,260,0.0,0.0,59,0.00,,,0.00,,2013-05-27 01:22:00,
2013-05-26 21:32:00,68.0,53.0,30.19,West,260,0.0,0.0,59,0.00,,,0.00,,2013-05-27 01:32:00,
2013-05-26 21:42:00,68.0,54.0,30.19,West,260,0.0,0.0,61,0.00,,,0.00,,2013-05-27 01:42:00,
2013-05-26 21:52:00,68.0,54.0,30.19,West,260,0.0,0.0,61,0.00,,,0.00,,2013-05-27 01:52:00,
2013-05-26 22:02:00,67.0,56.0,30.20,West,260,0.0,1.0,68,0.00,,,0.00,,2013-05-27 02:02:00,
2013-05-26 22:11:00,67.0,56.0,30.20,West,260,0.0,1.0,68,0.00,,,0.00,,2013-05-27 02:11:00,
2013-05-26 22:22:00,66.0,53.0,30.20,West,260,0.0,0.0,62,0.00,,,0.00,,2013-05-27 02:22:00,
2013-05-26 22:32:00,65.0,55.0,30.20,West,260,0.0,0.0,70,0.00,,,0.00,,2013-05-27 02:32:00,
2013-05-26 22:42:00,64.0,54.0,30.20,West,260,0.0,0.0,71,0.00,,,0.00,,2013-05-27 02:42:00,
2013-05-26 22:52:00,64.0,54.0,30.20,West,260,0.0,0.0,71,0.00,,,0.00,,2013-05-27 02:52:00,
2013-05-26 23:02:00,64.0,53.0,30.21,West,260,0.0,0.0,68,0.00,,,0.00,,2013-05-27 03:02:00,
2013-05-26 23:11:00,64.0,53.0,30.21,West,260,0.0,0.0,68,0.00,,,0.00,,2013-05-27 03:11:00,
2013-05-26 23:21:00,63.0,53.0,30.21,West,260,0.0,0.0,70,0.00,,,0.00,,2013-05-27 03:21:00,
2013-05-26 23:33:00,63.0,53.0,30.21,West,260,0.0,0.0,69,0.00,,,0.00,,2013-05-27 03:33:00,
2013-05-26 23:43:00,63.0,53.0,30.21,West,260,0.0,0.0,69,0.00,,,0.00,,2013-05-27 03:43:00,
2013-05-26 23:53:00,62.0,52.0,30.22,West,260,0.0,0.0,71,0.00,,,0.00,,2013-05-27 03:53:00,